Location: Claflin County Park
(44.8478°N, 87.5507°W)
Time: 06:58:32
(UTC+00:00)

USA 234 - Pass Details

Date: 12 March 2026
Orbit: 1102 x 1106 km, 123.0° (Epoch: 4 January)

Event Time Altitude Azimuth Distance (km) Brightness Sun altitude
Exits shadow 00:38:13 - 69° (ENE) 3,186 5.1 -9.1°
Reaches altitude 10° 00:38:52 10° 66° (ENE) 2,966 5.0 -9.3°
Maximum altitude 00:44:28 32° 7° (N) 1,810 4.4 -10.2°
Drops below altitude 10° 00:50:05 10° 308° (NW) 2,970 6.5 -11.2°
Sets 00:52:51 0° 299° (WNW) 3,929 7.6 -11.7°
